Time,TemperatureF,DewpointF,PressureIn,WindDirection,WindDirectionDegrees,WindSpeedMPH,WindSpeedGustMPH,Humidity,HourlyPrecipIn,Conditions,Clouds,dailyrainin,SolarRadiationWatts/m^2,SoftwareType,DateUTC
2013-02-22 00:02:00,46.0,21.0,30.46,ENE,77,3.0,12.0,36,0.00,,,0.00,0.000000,,2013-02-22 05:02:00,
2013-02-22 00:12:00,46.0,21.0,30.46,ENE,77,3.0,12.0,36,0.00,,,0.00,0.000000,,2013-02-22 05:12:00,
2013-02-22 00:32:00,42.0,27.0,30.53,NNE,16,4.0,10.0,55,0.00,,,0.00,0.000000,,2013-02-22 05:32:00,
2013-02-22 00:42:00,42.0,27.0,30.53,NNE,16,4.0,10.0,55,0.00,,,0.00,0.000000,,2013-02-22 05:42:00,
2013-02-22 00:52:00,42.0,27.0,30.53,NNE,16,4.0,10.0,55,0.00,,,0.00,0.000000,,2013-02-22 05:52:00,
2013-02-22 01:02:00,42.0,27.0,30.53,NNE,16,4.0,10.0,55,0.00,,,0.00,0.000000,,2013-02-22 06:02:00,
2013-02-22 01:12:00,42.0,27.0,30.53,NNE,16,4.0,10.0,55,0.00,,,0.00,0.000000,,2013-02-22 06:12:00,
2013-02-22 01:32:00,37.0,32.0,30.52,ESE,106,5.0,10.0,82,0.07,,,0.07,0.000000,,2013-02-22 06:32:00,
2013-02-22 01:42:00,37.0,32.0,30.52,ESE,106,5.0,10.0,82,0.07,,,0.07,0.000000,,2013-02-22 06:42:00,
2013-02-22 01:52:00,37.0,32.0,30.52,ESE,106,5.0,10.0,82,0.07,,,0.07,0.000000,,2013-02-22 06:52:00,
2013-02-22 02:01:00,37.0,32.0,30.52,ESE,106,5.0,10.0,82,0.07,,,0.07,0.000000,,2013-02-22 07:01:00,
2013-02-22 02:11:00,37.0,32.0,30.52,ESE,106,5.0,10.0,82,0.07,,,0.07,0.000000,,2013-02-22 07:11:00,
2013-02-22 02:42:00,36.0,34.0,30.51,NE,34,10.0,18.0,94,0.14,,,0.21,0.000000,,2013-02-22 07:42:00,
2013-02-22 02:52:00,36.0,34.0,30.51,NE,34,10.0,18.0,94,0.14,,,0.21,0.000000,,2013-02-22 07:52:00,
2013-02-22 03:01:00,36.0,34.0,30.51,NE,34,10.0,18.0,94,0.14,,,0.21,0.000000,,2013-02-22 08:01:00,
2013-02-22 03:11:00,36.0,34.0,30.51,NE,34,10.0,18.0,94,0.14,,,0.21,0.000000,,2013-02-22 08:11:00,
2013-02-22 03:42:00,37.0,36.0,30.53,SE,142,6.0,11.0,96,0.13,,,0.34,0.000000,,2013-02-22 08:42:00,
2013-02-22 03:52:00,37.0,36.0,30.53,SE,142,6.0,11.0,96,0.13,,,0.34,0.000000,,2013-02-22 08:52:00,
2013-02-22 04:03:00,37.0,36.0,30.53,SE,142,6.0,11.0,96,0.13,,,0.34,0.000000,,2013-02-22 09:03:00,
2013-02-22 04:11:00,37.0,36.0,30.53,SE,142,6.0,11.0,96,0.13,,,0.34,0.000000,,2013-02-22 09:11:00,
2013-02-22 04:32:00,35.0,34.0,30.46,ENE,77,7.0,13.0,98,0.03,,,0.37,0.000000,,2013-02-22 09:32:00,
2013-02-22 04:42:00,35.0,34.0,30.46,ENE,77,7.0,13.0,98,0.03,,,0.37,0.000000,,2013-02-22 09:42:00,
2013-02-22 04:52:00,35.0,34.0,30.46,ENE,77,7.0,13.0,98,0.03,,,0.37,0.000000,,2013-02-22 09:52:00,
2013-02-22 05:01:00,35.0,34.0,30.46,ENE,77,7.0,13.0,98,0.03,,,0.37,0.000000,,2013-02-22 10:01:00,
2013-02-22 05:11:00,35.0,34.0,30.46,ENE,77,7.0,13.0,98,0.03,,,0.37,0.000000,,2013-02-22 10:11:00,
2013-02-22 05:42:00,34.0,32.0,30.45,East,83,6.0,14.0,94,0.00,,,0.37,0.000000,,2013-02-22 10:42:00,
2013-02-22 05:52:00,34.0,32.0,30.45,East,83,6.0,14.0,94,0.00,,,0.37,0.000000,,2013-02-22 10:52:00,
2013-02-22 06:01:00,34.0,32.0,30.45,East,83,6.0,14.0,94,0.00,,,0.37,0.000000,,2013-02-22 11:01:00,
2013-02-22 06:11:00,34.0,32.0,30.45,East,83,6.0,14.0,94,0.00,,,0.37,0.000000,,2013-02-22 11:11:00,
2013-02-22 06:42:00,35.0,33.0,30.48,ENE,77,6.0,15.0,94,0.00,,,0.37,0.000000,,2013-02-22 11:42:00,
2013-02-22 06:52:00,35.0,33.0,30.48,ENE,77,6.0,15.0,94,0.00,,,0.37,0.000000,,2013-02-22 11:52:00,
2013-02-22 07:02:00,35.0,33.0,30.48,ENE,77,6.0,15.0,94,0.00,,,0.37,0.000000,,2013-02-22 12:02:00,
2013-02-22 07:11:00,35.0,33.0,30.48,ENE,77,6.0,15.0,94,0.00,,,0.37,0.000000,,2013-02-22 12:11:00,
2013-02-22 07:42:00,35.0,33.0,30.53,ENE,63,4.0,10.0,92,0.01,,,0.38,0.000000,,2013-02-22 12:42:00,
2013-02-22 07:52:00,35.0,33.0,30.53,ENE,63,4.0,10.0,92,0.01,,,0.38,0.000000,,2013-02-22 12:52:00,
2013-02-22 08:02:00,35.0,33.0,30.53,ENE,63,4.0,10.0,92,0.01,,,0.38,0.000000,,2013-02-22 13:02:00,
2013-02-22 08:11:00,35.0,33.0,30.53,ENE,63,4.0,10.0,92,0.01,,,0.38,0.000000,,2013-02-22 13:11:00,
2013-02-22 08:42:00,34.0,32.0,30.53,ENE,66,4.0,11.0,92,0.00,,,0.38,13.000000,,2013-02-22 13:42:00,
2013-02-22 08:52:00,34.0,32.0,30.53,ENE,66,4.0,11.0,92,0.00,,,0.38,13.000000,,2013-02-22 13:52:00,
2013-02-22 09:01:00,34.0,32.0,30.53,ENE,66,4.0,11.0,92,0.00,,,0.38,13.000000,,2013-02-22 14:01:00,
2013-02-22 09:11:00,34.0,32.0,30.53,ENE,66,4.0,11.0,92,0.00,,,0.38,13.000000,,2013-02-22 14:11:00,
2013-02-22 09:32:00,34.0,31.0,30.50,NE,56,8.0,14.0,90,0.00,,,0.38,45.000000,,2013-02-22 14:32:00,
2013-02-22 09:42:00,34.0,31.0,30.50,NE,56,8.0,14.0,90,0.00,,,0.38,45.000000,,2013-02-22 14:42:00,
2013-02-22 09:53:00,34.0,31.0,30.50,NE,56,8.0,14.0,90,0.00,,,0.38,45.000000,,2013-02-22 14:53:00,
2013-02-22 10:02:00,34.0,31.0,30.50,NE,56,8.0,14.0,90,0.00,,,0.38,45.000000,,2013-02-22 15:02:00,
2013-02-22 10:12:00,34.0,31.0,30.50,NE,56,8.0,14.0,90,0.00,,,0.38,45.000000,,2013-02-22 15:12:00,
2013-02-22 10:42:00,35.0,31.0,30.51,ENE,78,5.0,12.0,85,0.00,,,0.38,116.000000,,2013-02-22 15:42:00,
2013-02-22 10:52:00,35.0,31.0,30.51,ENE,78,5.0,12.0,85,0.00,,,0.38,116.000000,,2013-02-22 15:52:00,
2013-02-22 11:02:00,35.0,31.0,30.51,ENE,78,5.0,12.0,85,0.00,,,0.38,116.000000,,2013-02-22 16:02:00,
2013-02-22 11:12:00,35.0,31.0,30.51,ENE,78,5.0,12.0,85,0.00,,,0.38,116.000000,,2013-02-22 16:12:00,
2013-02-22 11:42:00,36.0,31.0,30.52,NNW,342,2.0,8.0,82,0.00,,,0.38,114.000000,,2013-02-22 16:42:00,
2013-02-22 11:52:00,36.0,31.0,30.52,NNW,342,2.0,8.0,82,0.00,,,0.38,114.000000,,2013-02-22 16:52:00,
2013-02-22 12:01:00,36.0,31.0,30.52,NNW,342,2.0,8.0,82,0.00,,,0.38,114.000000,,2013-02-22 17:01:00,
2013-02-22 12:11:00,36.0,31.0,30.52,NNW,342,2.0,8.0,82,0.00,,,0.38,114.000000,,2013-02-22 17:11:00,
2013-02-22 12:42:00,37.0,32.0,30.49,NE,35,3.0,7.0,83,0.00,,,0.38,135.000000,,2013-02-22 17:42:00,
2013-02-22 12:52:00,37.0,32.0,30.49,NE,35,3.0,7.0,83,0.00,,,0.38,135.000000,,2013-02-22 17:52:00,
2013-02-22 13:02:00,37.0,32.0,30.49,NE,35,3.0,7.0,83,0.00,,,0.38,135.000000,,2013-02-22 18:02:00,
2013-02-22 13:12:00,37.0,32.0,30.49,NE,35,3.0,7.0,83,0.00,,,0.38,135.000000,,2013-02-22 18:12:00,
2013-02-22 13:42:00,39.0,34.0,30.45,ENE,60,5.0,9.0,82,0.00,,,0.38,124.000000,,2013-02-22 18:42:00,
2013-02-22 13:52:00,39.0,34.0,30.45,ENE,60,5.0,9.0,82,0.00,,,0.38,124.000000,,2013-02-22 18:52:00,
2013-02-22 14:01:00,39.0,34.0,30.45,ENE,60,5.0,9.0,82,0.00,,,0.38,124.000000,,2013-02-22 19:01:00,
2013-02-22 14:11:00,39.0,34.0,30.45,ENE,60,5.0,9.0,82,0.00,,,0.38,124.000000,,2013-02-22 19:11:00,
2013-02-22 14:31:00,38.0,35.0,30.45,North,2,6.0,12.0,88,0.01,,,0.39,131.000000,,2013-02-22 19:31:00,
2013-02-22 14:42:00,38.0,35.0,30.45,North,2,6.0,12.0,88,0.01,,,0.39,131.000000,,2013-02-22 19:42:00,
2013-02-22 14:52:00,38.0,35.0,30.45,North,2,6.0,12.0,88,0.01,,,0.39,131.000000,,2013-02-22 19:52:00,
2013-02-22 15:01:00,38.0,35.0,30.45,North,2,6.0,12.0,88,0.01,,,0.39,131.000000,,2013-02-22 20:01:00,
2013-02-22 15:11:00,38.0,35.0,30.45,North,2,6.0,12.0,88,0.01,,,0.39,131.000000,,2013-02-22 20:11:00,
2013-02-22 15:42:00,36.0,34.0,30.44,NE,37,5.0,10.0,94,0.02,,,0.41,67.000000,,2013-02-22 20:42:00,
2013-02-22 15:52:00,36.0,34.0,30.44,NE,37,5.0,10.0,94,0.02,,,0.41,67.000000,,2013-02-22 20:52:00,
2013-02-22 16:02:00,36.0,34.0,30.44,NE,37,5.0,10.0,94,0.02,,,0.41,67.000000,,2013-02-22 21:02:00,
2013-02-22 16:11:00,36.0,34.0,30.44,NE,37,5.0,10.0,94,0.02,,,0.41,67.000000,,2013-02-22 21:11:00,
2013-02-22 16:42:00,38.0,37.0,30.43,NE,49,5.0,9.0,95,0.00,,,0.41,61.000000,,2013-02-22 21:42:00,
2013-02-22 16:52:00,38.0,37.0,30.43,NE,49,5.0,9.0,95,0.00,,,0.41,61.000000,,2013-02-22 21:52:00,
2013-02-22 17:01:00,38.0,37.0,30.43,NE,49,5.0,9.0,95,0.00,,,0.41,61.000000,,2013-02-22 22:01:00,
2013-02-22 17:11:00,38.0,37.0,30.43,NE,49,5.0,9.0,95,0.00,,,0.41,61.000000,,2013-02-22 22:11:00,
2013-02-22 17:42:00,37.0,36.0,30.43,NW,320,4.0,10.0,97,0.01,,,0.42,39.000000,,2013-02-22 22:42:00,
2013-02-22 17:52:00,37.0,36.0,30.43,NW,320,4.0,10.0,97,0.01,,,0.42,39.000000,,2013-02-22 22:52:00,
2013-02-22 18:01:00,37.0,36.0,30.43,NW,320,4.0,10.0,97,0.01,,,0.42,39.000000,,2013-02-22 23:01:00,
2013-02-22 18:11:00,37.0,36.0,30.43,NW,320,4.0,10.0,97,0.01,,,0.42,39.000000,,2013-02-22 23:11:00,
2013-02-22 18:42:00,35.0,34.0,30.40,NE,50,6.0,11.0,98,0.00,,,0.42,10.000000,,2013-02-22 23:42:00,
2013-02-22 18:52:00,35.0,34.0,30.40,NE,50,6.0,11.0,98,0.00,,,0.42,10.000000,,2013-02-22 23:52:00,
2013-02-22 19:02:00,35.0,34.0,30.40,NE,50,6.0,11.0,98,0.00,,,0.42,10.000000,,2013-02-23 00:02:00,
2013-02-22 19:11:00,35.0,34.0,30.40,NE,50,6.0,11.0,98,0.00,,,0.42,10.000000,,2013-02-23 00:11:00,
2013-02-22 19:32:00,35.0,34.0,30.42,North,11,6.0,11.0,98,0.00,,,0.42,0.000000,,2013-02-23 00:32:00,
2013-02-22 19:42:00,35.0,34.0,30.42,North,11,6.0,11.0,98,0.00,,,0.42,0.000000,,2013-02-23 00:42:00,
2013-02-22 19:52:00,35.0,34.0,30.42,North,11,6.0,11.0,98,0.00,,,0.42,0.000000,,2013-02-23 00:52:00,
2013-02-22 20:01:00,35.0,34.0,30.42,North,11,6.0,11.0,98,0.00,,,0.42,0.000000,,2013-02-23 01:01:00,
2013-02-22 20:11:00,35.0,34.0,30.42,North,11,6.0,11.0,98,0.00,,,0.42,0.000000,,2013-02-23 01:11:00,
2013-02-22 20:32:00,36.0,35.0,30.41,ENE,63,5.0,11.0,98,0.01,,,0.43,0.000000,,2013-02-23 01:32:00,
2013-02-22 20:42:00,36.0,35.0,30.41,ENE,63,5.0,11.0,98,0.01,,,0.43,0.000000,,2013-02-23 01:42:00,
2013-02-22 20:52:00,36.0,35.0,30.41,ENE,63,5.0,11.0,98,0.01,,,0.43,0.000000,,2013-02-23 01:52:00,
2013-02-22 21:01:00,36.0,35.0,30.41,ENE,63,5.0,11.0,98,0.01,,,0.43,0.000000,,2013-02-23 02:01:00,
2013-02-22 21:11:00,36.0,35.0,30.41,ENE,63,5.0,11.0,98,0.01,,,0.43,0.000000,,2013-02-23 02:11:00,
2013-02-22 21:42:00,36.0,35.0,30.42,ENE,57,5.0,11.0,98,0.00,,,0.43,0.000000,,2013-02-23 02:42:00,
2013-02-22 21:52:00,36.0,35.0,30.42,ENE,57,5.0,11.0,98,0.00,,,0.43,0.000000,,2013-02-23 02:52:00,
2013-02-22 22:02:00,36.0,35.0,30.42,ENE,57,5.0,11.0,98,0.00,,,0.43,0.000000,,2013-02-23 03:02:00,
2013-02-22 22:11:00,36.0,35.0,30.42,ENE,57,5.0,11.0,98,0.00,,,0.43,0.000000,,2013-02-23 03:11:00,
2013-02-22 22:42:00,34.0,34.0,30.41,ENE,77,5.0,11.0,98,0.00,,,0.43,0.000000,,2013-02-23 03:42:00,
2013-02-22 22:52:00,34.0,34.0,30.41,ENE,77,5.0,11.0,98,0.00,,,0.43,0.000000,,2013-02-23 03:52:00,
2013-02-22 23:01:00,34.0,34.0,30.41,ENE,77,5.0,11.0,98,0.00,,,0.43,0.000000,,2013-02-23 04:01:00,
2013-02-22 23:11:00,34.0,34.0,30.41,ENE,77,5.0,11.0,98,0.00,,,0.43,0.000000,,2013-02-23 04:11:00,
2013-02-22 23:32:00,34.0,34.0,30.37,NE,52,6.0,10.0,98,0.01,,,0.44,0.000000,,2013-02-23 04:32:00,
2013-02-22 23:42:00,34.0,34.0,30.37,NE,52,6.0,10.0,98,0.01,,,0.44,0.000000,,2013-02-23 04:42:00,
2013-02-22 23:52:00,34.0,34.0,30.37,NE,52,6.0,10.0,98,0.01,,,0.44,0.000000,,2013-02-23 04:52:00,